SCP
0 0 0 0 0 0 0 0 0 0 -0 -0 0 0 0 0 -0 0 0 0 -0 -0 0 0 0 0 0 0 -0 0 0 -0 0 0 0 0 0 0 0 0 0 0 0 -0
0 0 0 0 0 0 0 0 0 0 0 -0 -0 -0 0 0 0 0 0 -0 -0 0 -0 0 0 0 0 0 0 -0 0 -0 0 0 0 0 0 0 0 0 0 0 0 0
0 0 0 0 0 0 0 0 0 0 -0 0 0 0 0 0 0 0 0 0 -0 -0 -0 0 -0 -0 0 0 0 -0 -0 0 0 -0 0 0 0 0 -0 0 0 0 -0 0
0 0 0 0 0 0 0 0 0 0 -0 -0 -0 0 0 0 -0 0 -0 0 -0 -0 -0 -0 0 0 -0 0 0 -0 -0 0 0 0 -0 0 0 0 0 0 0 -0 0 0
0 0 0 0 0 0 0 0 0 0 0 -0 -0 -0 0 0 0 0 -0 0 -0 -0 -0 -0 -0 -0 0 0 0 0 -0 -0 0 0 0 0 0 0 0 0 0 0 0 0
0 0 0 0 0 0 0 0 0 0 0 0 -0 0 0 0 0 0 0 -0 -0 -0 -0 0 0 0 0 0 0 0 0 -0 -0 0 0 0 0 0 0 0 0 -0 -0 0
0 0 0 0 0 0 0 0 0 0 0 0 0 0 0 0 -0 -0 -0 -0 0 -0 -0 -0 -0 -0 0 0 0 0 0 0 -0 -0 0 0 0 0 0 0 0 -0 -0 -0
0 0 0 0 0 0 -0 0 0 0 0 0 0 0 0 0 0 -0 0 0 0 0 -0 -0 -0 -0 0 0 0 0 0 -0 0 0 0 0 0 0 0 0 -0 -0 -0 -0
0 -0 0 0 0 0 0 0 0 0 0 0 0 0 0 -0 -0 0 -0 0 0 0 0 -0 -0 -0 0 0 0 0 0 0 0 0 0 0 0 0 0 0 0 0 0 -0
0 0 0 0 0 0 0 0 0 0 0 0 -0 0 0 -0 -0 -0 0 0 0 0 0 0 -0 -0 0 0 -0 0 0 0 0 0 -0 0 -0 -0 0 0 0 0 0 0
-0 0 0 0 0 0 0 0 0 0 0 0 0 0 -0 -0 -0 0 0 -0 0 0 0 0 0 0 0 0 0 0 0 0 0 0 0 0 0 0 -0 0 0 0 0 0
0 0 0 0 0 0 0 0 0 0 0 0 0 0 0 -0 -0 -0 0 -0 0 -0 0 0 0 0 0 0 0 0 0 0 0 0 0 0 0 0 0 0 0 0 0 0
0 0 0 0 0 0 0 0 0 0 0 0 0 0 -0 -0 -0 -0 -0 -0 0 0 0 0 0 0 0 0 0 0 0 0 -0 0 0 0 0 0 0 0 0 0 0 0
0 0 0 0 0 0 0 0 0 0 0 -0 0 0 0 0 -0 -0 -0 0 -0 0 0 0 0 0 0 0 0 0 0 0 0 0 0 0 0 0 0 0 0 0 0 0
0 0 0 0 0 0 0 0 0 0 0 0 -0 0 0 0 0 0 0 0 -0 -0 0 0 0 0 0 0 0 0 0 0 0 0 0 0 0 0 0 0 0 0 0 0
0 0 0 0 0 0 0 1 0 0 0 0 0 0 -0 0 0 0 0 0 0 -0 -0 0 0 0 0 0 0 0 0 0 0 0 0 0 1 1 1 0 0 1 1 0
0 0 0 0 0 0 0 0 0 0 0 0 0 0 0 0 0 0 0 0 0 0 0 -0 -0 -0 0 0 0 0 0 0 0 0 0 0 1 1 1 1 1 1 1 1
0 0 0 0 0 0 0 0 0 0 0 0 0 0 0 0 0 0 0 0 0 0 0 0 0 0 0 0 0 0 0 0 0 0 0 1 0 1 1 1 1 1 1 1
0 0 0 0 0 0 0 0 0 0 0 0 0 0 0 0 0 0 0 0 0 0 0 0 0 -0 -0 0 0 0 0 0 0 0 0 0 0 0 0 0 0 0 0 0
0 0 0 0 0 0 0 0 0 0 0 0 0 0 0 0 0 0 0 0 0 0 0 0 0 0 -0 -0 0 0 0 0 0 0 0 0 0 0 0 0 0 0 0 0
0 0 0 0 0 0 0 0 0 0 0 0 0 0 0 0 0 0 0 0 0 0 0 0 0 0 0 0 0 0 0 0 0 0 0 0 0 0 0 0 0 0 0 0
0 0 0 0 0 0 0 0 0 0 0 0 0 0 0 0 -0 -0 0 0 0 0 0 0 0 0 0 0 0 0 0 0 0 0 0 0 0 0 0 0 0 0 0 0
0 0 0 0 0 0 0 0 0 0 0 0 0 0 0 0 -0 0 0 0 0 0 0 0 0 0 0 0 0 0 0 0 0 0 0 0 0 0 -0 0 0 0 0 0
0 0 0 0 0 0 0 0 0 0 0 0 0 0 0 0 0 0 0 0 0 0 0 0 0 0 0 0 0 0 0 0 0 0 0 0 0 0 0 0 0 0 0 0
0 0 0 0 0 0 0 0 0 0 0 0 0 -0 0 0 0 0 0 0 0 0 0 0 0 0 0 0 0 0 0 0 0 0 0 0 0 0 0 0 0 0 0 0
0 0 0 0 0 0 0 0 0 0 0 0 0 0 0 0 0 0 0 0 0 0 0 0 0 0 0 0 0 0 0 0 0 0 0 0 0 0 0 0 0 0 0 0
Wind_Speed_500mb
3 11 24 16 9 5 9 10 12 8 8 8 4 10 15 20 30 43 42 49 46 48 37 34 37 39 36 37 39 35 35 36 35 35 36 33 33 33 27 25 22 18 18 15
9 21 9 7 8 6 6 13 10 9 15 5 8 12 10 14 19 38 37 42 50 37 36 37 41 45 42 39 39 36 34 40 40 38 34 33 33 31 26 22 21 20 20 13
18 10 15 12 14 16 8 7 12 2 13 5 5 8 11 11 13 24 26 26 33 47 46 44 47 50 47 47 43 39 39 39 42 40 35 33 30 27 26 17 15 23 20 10
9 8 15 12 16 17 13 15 11 14 7 3 4 5 11 22 25 29 42 36 36 41 48 46 48 53 54 52 43 43 41 37 44 38 36 36 36 28 23 18 16 21 20 14
8 16 16 15 17 18 3 16 14 8 3 3 8 5 5 20 28 36 53 48 47 42 49 52 54 59 55 54 50 47 45 43 45 35 39 38 36 29 24 22 19 18 24 21
6 3 7 5 4 23 23 15 7 6 5 7 4 9 10 17 42 41 53 70 58 46 52 54 50 49 56 56 52 50 49 51 46 41 37 35 35 34 27 25 25 22 23 27
4 8 6 9 12 17 13 16 4 7 7 5 6 10 18 13 19 37 56 71 64 52 53 51 48 54 58 61 57 54 52 52 54 51 45 39 35 33 28 25 26 27 26 24
6 12 21 18 16 15 28 26 9 7 7 2 7 11 2 21 31 27 42 71 59 57 55 55 55 63 66 64 60 58 57 53 53 51 47 45 39 36 33 30 29 26 26 23
9 4 7 19 13 17 13 15 3 1 4 6 5 7 11 23 21 11 29 54 58 55 57 58 54 62 69 67 63 60 62 56 53 49 46 47 43 39 35 34 30 28 29 28
0 2 3 12 11 6 14 24 8 5 9 9 5 7 6 31 29 16 22 47 56 52 50 52 55 61 73 70 64 59 59 59 52 52 48 45 43 40 36 37 38 33 28 28
3 3 6 13 12 13 10 11 5 3 10 5 6 3 10 24 26 22 30 39 52 56 54 62 67 70 76 72 70 62 56 59 58 53 51 47 44 43 37 36 36 35 29 30
1 1 5 4 4 3 2 2 17 14 9 1 5 2 14 19 23 22 18 30 40 52 68 54 68 69 78 77 74 66 60 57 54 54 52 48 43 45 43 40 35 36 36 35
4 5 3 3 7 6 5 4 1 5 1 9 11 3 14 25 25 26 11 15 30 40 46 57 70 65 78 80 75 70 63 58 54 53 52 49 48 47 49 45 41 38 37 31
1 6 6 14 3 3 5 7 2 10 7 5 3 7 19 26 25 29 21 8 17 26 36 56 68 70 71 78 76 73 66 61 57 56 53 54 50 47 49 48 44 40 39 34
1 5 5 8 4 9 6 12 5 3 9 4 9 5 11 17 18 25 22 13 21 32 33 45 57 57 53 53 54 61 64 65 64 67 64 59 53 50 46 47 47 44 46 43
4 6 3 6 14 11 5 18 4 6 6 6 2 3 3 10 14 24 29 25 14 31 46 42 44 57 62 50 40 43 44 52 59 70 75 69 62 57 55 50 50 49 48 47
4 9 5 7 3 12 5 6 3 1 1 3 3 9 9 11 16 22 28 28 23 7 38 52 44 43 43 43 55 56 50 56 61 59 66 76 71 65 61 58 53 51 48 47
6 7 0 3 3 8 5 2 4 1 2 4 8 8 6 2 7 17 24 25 28 12 18 29 40 32 29 30 42 51 51 52 46 52 68 69 70 68 67 65 59 56 51 48
4 7 5 5 7 6 3 10 10 8 4 1 3 6 1 6 11 5 19 20 19 18 10 15 23 29 22 17 22 33 42 43 40 41 46 55 60 59 57 68 66 64 59 50
11 10 5 4 8 10 1 6 5 4 9 10 3 6 3 2 8 2 12 17 18 20 14 3 5 17 27 21 23 36 43 42 33 25 23 28 38 53 50 51 58 57 53 42
4 3 8 8 8 5 5 9 9 9 4 8 4 3 3 5 3 2 5 10 14 15 14 13 7 5 7 22 25 23 15 19 33 33 39 36 40 52 66 52 48 44 42 39
7 7 5 5 6 10 16 11 8 5 6 7 9 10 12 13 10 4 2 6 9 7 6 8 12 11 6 10 11 13 10 10 16 15 20 18 36 57 49 46 27 21 21 22
6 5 1 9 1 3 18 3 7 10 13 8 9 11 9 11 8 5 1 4 8 9 9 8 10 13 14 3 16 16 11 8 6 2 3 12 32 10 12 13 16 20 16 10
8 7 4 6 8 11 15 13 14 16 14 17 16 13 11 8 8 4 3 5 5 7 8 7 7 11 14 9 8 10 19 15 9 12 19 21 14 11 19 27 21 17 24 24
3 19 10 5 6 6 16 21 21 21 22 20 19 16 12 9 5 4 5 7 4 6 10 13 12 15 20 17 19 14 10 17 13 11 16 24 20 18 18 25 30 28 25 25
17 11 11 10 21 17 16 37 33 31 27 21 17 13 10 11 9 8 7 7 7 8 11 13 15 15 18 18 20 20 16 14 10 10 10 10 12 13 14 16 14 18 20 23
Wind_Direction_500mb
104 181 197 172 197 73 133 146 139 123 164 215 161 174 156 165 209 235 244 209 210 214 206 208 202 200 198 193 190 187 179 172 172 167 164 165 174 176 176 180 174 170 167 153
159 199 182 146 146 142 157 147 137 163 158 235 194 212 200 191 182 207 201 208 213 213 205 204 204 204 202 202 197 189 181 180 176 172 169 167 167 173 179 180 190 184 184 167
179 173 167 169 161 156 181 237 167 122 145 146 245 233 192 208 236 208 212 209 218 213 210 205 203 205 204 208 206 193 184 184 181 181 181 180 181 185 186 182 176 187 188 186
183 135 164 175 188 195 211 208 162 152 184 311 248 276 215 202 210 230 212 216 220 215 217 210 205 205 207 210 207 201 193 193 184 186 193 192 192 193 195 198 183 191 193 194
145 175 174 189 207 189 136 151 168 202 101 293 202 222 201 189 207 214 220 219 218 221 214 209 209 209 208 210 207 204 202 202 194 197 192 195 198 203 208 213 213 202 202 209
252 172 206 214 152 197 140 109 88 78 282 250 143 230 242 187 219 214 219 212 212 217 214 216 210 203 209 210 208 207 206 202 206 205 201 202 204 204 208 215 217 212 209 212
230 217 159 165 111 149 177 169 219 237 225 256 149 207 265 290 233 218 209 209 211 210 211 210 200 201 207 211 206 206 206 211 211 211 214 215 212 214 213 213 214 218 212 214
235 194 185 172 202 190 197 203 197 259 226 134 175 241 142 320 293 234 224 207 201 203 207 204 204 204 210 213 210 207 206 206 206 211 216 214 219 221 221 219 216 221 223 220
194 208 144 177 147 172 168 201 125 126 265 271 184 243 255 5 5 196 196 190 197 205 199 203 206 206 213 213 214 211 210 210 213 216 216 216 220 224 229 230 228 226 227 234
226 183 114 137 138 94 209 156 191 207 238 239 228 273 298 330 335 302 206 202 201 200 199 203 206 209 215 217 217 215 218 216 216 216 217 222 225 228 233 231 239 237 232 231
187 268 85 158 215 186 152 179 151 184 259 270 281 151 342 324 325 295 240 208 202 201 212 211 211 212 216 217 217 217 217 221 220 220 223 225 229 230 234 237 230 236 242 240
36 223 125 83 37 152 240 189 199 231 198 289 315 6 15 358 359 3 233 213 207 201 217 218 218 217 216 217 216 217 220 219 223 226 228 232 236 232 235 236 239 235 240 244
353 48 138 146 121 112 43 24 189 133 135 215 273 76 22 8 12 19 1 234 226 216 214 210 209 219 219 219 218 219 220 224 222 227 230 233 235 234 236 238 242 246 242 237
204 85 311 190 178 148 129 34 295 258 216 155 257 331 0 356 349 350 349 308 214 195 196 203 210 218 229 226 221 223 225 227 230 231 232 235 234 234 236 238 241 243 239 240
25 103 120 56 48 92 184 77 38 144 110 265 145 293 354 337 338 340 332 309 194 176 180 194 200 208 215 219 225 234 238 237 238 238 237 236 238 235 236 238 240 240 237 241
17 125 85 56 84 53 97 81 32 66 107 111 196 97 3 357 7 11 8 1 199 185 190 194 206 218 213 211 229 252 253 260 252 248 246 241 241 240 238 238 239 239 237 240
46 141 188 170 5 338 201 76 85 26 51 354 24 51 15 7 14 9 13 26 46 157 206 202 213 225 233 232 243 255 267 273 264 262 256 250 245 243 241 239 238 237 238 240
136 113 191 123 202 228 68 75 69 90 351 108 138 108 81 31 27 21 24 28 32 70 141 174 193 218 248 266 256 262 260 261 255 257 262 257 252 247 239 235 234 231 232 235
6 141 123 227 211 333 183 195 197 210 171 157 15 157 168 271 287 13 11 17 24 28 73 194 210 230 246 267 243 253 254 258 268 268 261 256 256 251 244 239 227 228 228 232
71 69 256 162 238 243 69 155 144 158 238 168 128 64 162 239 281 63 0 14 12 18 31 5 230 239 251 221 228 231 237 248 252 253 269 253 247 248 241 233 226 233 237 235
135 93 233 191 235 275 201 160 150 217 89 130 88 82 153 213 286 245 350 360 14 27 22 11 349 249 242 216 197 187 186 199 233 244 251 266 273 265 255 248 235 215 213 222
200 186 172 163 200 247 158 139 224 81 132 135 120 124 111 124 140 161 303 17 27 36 31 20 3 15 231 224 188 155 169 183 211 237 246 252 264 242 213 183 188 178 204 199
213 231 228 219 144 88 183 217 209 156 138 130 118 130 128 142 168 203 346 36 53 40 41 23 29 14 18 227 204 217 227 200 148 202 209 211 150 80 201 140 159 166 150 164
203 175 220 206 173 217 211 218 176 158 140 125 99 98 118 139 155 163 112 84 77 69 58 57 38 53 53 74 127 190 182 204 197 176 156 177 195 181 187 181 190 200 190 191
106 159 178 233 198 215 226 204 180 167 155 135 109 100 95 94 126 148 132 136 109 78 87 92 89 90 84 82 104 109 158 183 153 184 198 205 219 229 214 215 211 212 211 200
192 171 190 223 193 185 197 200 188 181 176 156 128 121 111 90 110 147 147 137 120 97 85 97 101 94 92 101 107 109 104 91 111 138 147 166 164 176 187 196 198 227 219 207
Wind_Speed_850mb
3 11 24 16 9 5 9 10 12 8 8 8 4 10 15 20 30 43 42 49 46 48 37 34 37 39 36 37 39 35 35 36 35 35 36 33 33 33 27 25 22 18 18 15
9 21 9 7 8 6 6 13 10 9 15 5 8 12 10 14 19 38 37 42 50 37 36 37 41 45 42 39 39 36 34 40 40 38 34 33 33 31 26 22 21 20 20 13
18 10 15 12 14 16 8 7 12 2 13 5 5 8 11 11 13 24 26 26 33 47 46 44 47 50 47 47 43 39 39 39 42 40 35 33 30 27 26 17 15 23 20 10
9 8 15 12 16 17 13 15 11 14 7 3 4 5 11 22 25 29 42 36 36 41 48 46 48 53 54 52 43 43 41 37 44 38 36 36 36 28 23 18 16 21 20 14
8 16 16 15 17 18 3 16 14 8 3 3 8 5 5 20 28 36 53 48 47 42 49 52 54 59 55 54 50 47 45 43 45 35 39 38 36 29 24 22 19 18 24 21
6 3 7 5 4 23 23 15 7 6 5 7 4 9 10 17 42 41 53 70 58 46 52 54 50 49 56 56 52 50 49 51 46 41 37 35 35 34 27 25 25 22 23 27
4 8 6 9 12 17 13 16 4 7 7 5 6 10 18 13 19 37 56 71 64 52 53 51 48 54 58 61 57 54 52 52 54 51 45 39 35 33 28 25 26 27 26 24
6 12 21 18 16 15 28 26 9 7 7 2 7 11 2 21 31 27 42 71 59 57 55 55 55 63 66 64 60 58 57 53 53 51 47 45 39 36 33 30 29 26 26 23
9 4 7 19 13 17 13 15 3 1 4 6 5 7 11 23 21 11 29 54 58 55 57 58 54 62 69 67 63 60 62 56 53 49 46 47 43 39 35 34 30 28 29 28
0 2 3 12 11 6 14 24 8 5 9 9 5 7 6 31 29 16 22 47 56 52 50 52 55 61 73 70 64 59 59 59 52 52 48 45 43 40 36 37 38 33 28 28
3 3 6 13 12 13 10 11 5 3 10 5 6 3 10 24 26 22 30 39 52 56 54 62 67 70 76 72 70 62 56 59 58 53 51 47 44 43 37 36 36 35 29 30
1 1 5 4 4 3 2 2 17 14 9 1 5 2 14 19 23 22 18 30 40 52 68 54 68 69 78 77 74 66 60 57 54 54 52 48 43 45 43 40 35 36 36 35
4 5 3 3 7 6 5 4 1 5 1 9 11 3 14 25 25 26 11 15 30 40 46 57 70 65 78 80 75 70 63 58 54 53 52 49 48 47 49 45 41 38 37 31
1 6 6 14 3 3 5 7 2 10 7 5 3 7 19 26 25 29 21 8 17 26 36 56 68 70 71 78 76 73 66 61 57 56 53 54 50 47 49 48 44 40 39 34
1 5 5 8 4 9 6 12 5 3 9 4 9 5 11 17 18 25 22 13 21 32 33 45 57 57 53 53 54 61 64 65 64 67 64 59 53 50 46 47 47 44 46 43
4 6 3 6 14 11 5 18 4 6 6 6 2 3 3 10 14 24 29 25 14 31 46 42 44 57 62 50 40 43 44 52 59 70 75 69 62 57 55 50 50 49 48 47
4 9 5 7 3 12 5 6 3 1 1 3 3 9 9 11 16 22 28 28 23 7 38 52 44 43 43 43 55 56 50 56 61 59 66 76 71 65 61 58 53 51 48 47
6 7 0 3 3 8 5 2 4 1 2 4 8 8 6 2 7 17 24 25 28 12 18 29 40 32 29 30 42 51 51 52 46 52 68 69 70 68 67 65 59 56 51 48
4 7 5 5 7 6 3 10 10 8 4 1 3 6 1 6 11 5 19 20 19 18 10 15 23 29 22 17 22 33 42 43 40 41 46 55 60 59 57 68 66 64 59 50
11 10 5 4 8 10 1 6 5 4 9 10 3 6 3 2 8 2 12 17 18 20 14 3 5 17 27 21 23 36 43 42 33 25 23 28 38 53 50 51 58 57 53 42
4 3 8 8 8 5 5 9 9 9 4 8 4 3 3 5 3 2 5 10 14 15 14 13 7 5 7 22 25 23 15 19 33 33 39 36 40 52 66 52 48 44 42 39
7 7 5 5 6 10 16 11 8 5 6 7 9 10 12 13 10 4 2 6 9 7 6 8 12 11 6 10 11 13 10 10 16 15 20 18 36 57 49 46 27 21 21 22
6 5 1 9 1 3 18 3 7 10 13 8 9 11 9 11 8 5 1 4 8 9 9 8 10 13 14 3 16 16 11 8 6 2 3 12 32 10 12 13 16 20 16 10
8 7 4 6 8 11 15 13 14 16 14 17 16 13 11 8 8 4 3 5 5 7 8 7 7 11 14 9 8 10 19 15 9 12 19 21 14 11 19 27 21 17 24 24
3 19 10 5 6 6 16 21 21 21 22 20 19 16 12 9 5 4 5 7 4 6 10 13 12 15 20 17 19 14 10 17 13 11 16 24 20 18 18 25 30 28 25 25
17 11 11 10 21 17 16 37 33 31 27 21 17 13 10 11 9 8 7 7 7 8 11 13 15 15 18 18 20 20 16 14 10 10 10 10 12 13 14 16 14 18 20 23
Wind_Direction_850mb
104 181 197 172 197 73 133 146 139 123 164 215 161 174 156 165 209 235 244 209 210 214 206 208 202 200 198 193 190 187 179 172 172 167 164 165 174 176 176 180 174 170 167 153
159 199 182 146 146 142 157 147 137 163 158 235 194 212 200 191 182 207 201 208 213 213 205 204 204 204 202 202 197 189 181 180 176 172 169 167 167 173 179 180 190 184 184 167
179 173 167 169 161 156 181 237 167 122 145 146 245 233 192 208 236 208 212 209 218 213 210 205 203 205 204 208 206 193 184 184 181 181 181 180 181 185 186 182 176 187 188 186
183 135 164 175 188 195 211 208 162 152 184 311 248 276 215 202 210 230 212 216 220 215 217 210 205 205 207 210 207 201 193 193 184 186 193 192 192 193 195 198 183 191 193 194
145 175 174 189 207 189 136 151 168 202 101 293 202 222 201 189 207 214 220 219 218 221 214 209 209 209 208 210 207 204 202 202 194 197 192 195 198 203 208 213 213 202 202 209
252 172 206 214 152 197 140 109 88 78 282 250 143 230 242 187 219 214 219 212 212 217 214 216 210 203 209 210 208 207 206 202 206 205 201 202 204 204 208 215 217 212 209 212
230 217 159 165 111 149 177 169 219 237 225 256 149 207 265 290 233 218 209 209 211 210 211 210 200 201 207 211 206 206 206 211 211 211 214 215 212 214 213 213 214 218 212 214
235 194 185 172 202 190 197 203 197 259 226 134 175 241 142 320 293 234 224 207 201 203 207 204 204 204 210 213 210 207 206 206 206 211 216 214 219 221 221 219 216 221 223 220
194 208 144 177 147 172 168 201 125 126 265 271 184 243 255 5 5 196 196 190 197 205 199 203 206 206 213 213 214 211 210 210 213 216 216 216 220 224 229 230 228 226 227 234
226 183 114 137 138 94 209 156 191 207 238 239 228 273 298 330 335 302 206 202 201 200 199 203 206 209 215 217 217 215 218 216 216 216 217 222 225 228 233 231 239 237 232 231
187 268 85 158 215 186 152 179 151 184 259 270 281 151 342 324 325 295 240 208 202 201 212 211 211 212 216 217 217 217 217 221 220 220 223 225 229 230 234 237 230 236 242 240
36 223 125 83 37 152 240 189 199 231 198 289 315 6 15 358 359 3 233 213 207 201 217 218 218 217 216 217 216 217 220 219 223 226 228 232 236 232 235 236 239 235 240 244
353 48 138 146 121 112 43 24 189 133 135 215 273 76 22 8 12 19 1 234 226 216 214 210 209 219 219 219 218 219 220 224 222 227 230 233 235 234 236 238 242 246 242 237
204 85 311 190 178 148 129 34 295 258 216 155 257 331 0 356 349 350 349 308 214 195 196 203 210 218 229 226 221 223 225 227 230 231 232 235 234 234 236 238 241 243 239 240
25 103 120 56 48 92 184 77 38 144 110 265 145 293 354 337 338 340 332 309 194 176 180 194 200 208 215 219 225 234 238 237 238 238 237 236 238 235 236 238 240 240 237 241
17 125 85 56 84 53 97 81 32 66 107 111 196 97 3 357 7 11 8 1 199 185 190 194 206 218 213 211 229 252 253 260 252 248 246 241 241 240 238 238 239 239 237 240
46 141 188 170 5 338 201 76 85 26 51 354 24 51 15 7 14 9 13 26 46 157 206 202 213 225 233 232 243 255 267 273 264 262 256 250 245 243 241 239 238 237 238 240
136 113 191 123 202 228 68 75 69 90 351 108 138 108 81 31 27 21 24 28 32 70 141 174 193 218 248 266 256 262 260 261 255 257 262 257 252 247 239 235 234 231 232 235
6 141 123 227 211 333 183 195 197 210 171 157 15 157 168 271 287 13 11 17 24 28 73 194 210 230 246 267 243 253 254 258 268 268 261 256 256 251 244 239 227 228 228 232
71 69 256 162 238 243 69 155 144 158 238 168 128 64 162 239 281 63 0 14 12 18 31 5 230 239 251 221 228 231 237 248 252 253 269 253 247 248 241 233 226 233 237 235
135 93 233 191 235 275 201 160 150 217 89 130 88 82 153 213 286 245 350 360 14 27 22 11 349 249 242 216 197 187 186 199 233 244 251 266 273 265 255 248 235 215 213 222
200 186 172 163 200 247 158 139 224 81 132 135 120 124 111 124 140 161 303 17 27 36 31 20 3 15 231 224 188 155 169 183 211 237 246 252 264 242 213 183 188 178 204 199
213 231 228 219 144 88 183 217 209 156 138 130 118 130 128 142 168 203 346 36 53 40 41 23 29 14 18 227 204 217 227 200 148 202 209 211 150 80 201 140 159 166 150 164
203 175 220 206 173 217 211 218 176 158 140 125 99 98 118 139 155 163 112 84 77 69 58 57 38 53 53 74 127 190 182 204 197 176 156 177 195 181 187 181 190 200 190 191
106 159 178 233 198 215 226 204 180 167 155 135 109 100 95 94 126 148 132 136 109 78 87 92 89 90 84 82 104 109 158 183 153 184 198 205 219 229 214 215 211 212 211 200
192 171 190 223 193 185 197 200 188 181 176 156 128 121 111 90 110 147 147 137 120 97 85 97 101 94 92 101 107 109 104 91 111 138 147 166 164 176 187 196 198 227 219 207